This demonstration page uses our WeatherBlox Daily Observations layout. Learn more.

Left ArrowRight Arrow

Hourly Observations for August 19, 2020

Temp ( °F °C ) Dew Point ( °F °C ) Humidity (%) Winds ( mph kmh ) Pressure ( in mb ) Visibility ( mi km ) Precip ( " mm )
12:53 am 00:53 Clear 70 21.1 62 16.7 76 76 SSE 10 17 30.05 1018 10 16 0.00 0.00
1:53 am 01:53 Mostly Clear 68 20 62 16.7 81 81 SSE 10 17 30.05 1018 10 16 0.00 0.00
2:53 am 02:53 Mostly Cloudy 68 20 62 16.7 81 81 SSE 9 15 30.05 1018 10 16 0.00 0.00
3:53 am 03:53 Mostly Cloudy 66 18.9 61 16.1 84 84 SSE 8 13 30.04 1017 10 16 0.00 0.00
4:53 am 04:53 Mostly Clear 65 18.3 60 15.6 84 84 SSE 6 9 30.05 1018 10 16 0.00 0.00
5:53 am 05:53 Clear 64 17.8 60 15.6 87 87 S 8 13 30.05 1018 10 16 0.00 0.00
6:53 am 06:53 Sunny 63 17.2 60 15.6 90 90 S 6 9 30.07 1018 10 16 0.00 0.00
7:53 am 07:53 Cloudy 66 18.9 60 15.6 81 81 S 7 11 30.07 1018 10 16 0.00 0.00
8:53 am 08:53 Mostly Cloudy 67 19.4 61 16.1 81 81 S 9 15 30.07 1018 10 16 0.00 0.00
9:53 am 09:53 Partly Cloudy 72 22.2 60 15.6 66 66 S 10 17 30.06 1018 10 16 0.00 0.00
10:53 am 10:53 Sunny 75 23.9 60 15.6 60 60 S 12 19 30.05 1018 10 16 0.00 0.00
11:53 am 11:53 Sunny 77 25 61 16.1 58 58 S 10 17 30.04 1017 10 16 0.00 0.00
12:53 pm 12:53 Sunny 81 27.2 59 15 47 47 S 13 20 30.01 1016 10 16 0.00 0.00
1:53 pm 13:53 Sunny 83 28.3 60 15.6 46 46 SSE 15 24 29.99 1016 10 16 0.00 0.00
2:53 pm 14:53 Sunny 83 28.3 60 15.6 46 46 SSE 12 19 29.98 1015 10 16 0.00 0.00
3:53 pm 15:53 Sunny 84 28.9 60 15.6 44 44 SSE 13 20 29.97 1015 10 16 0.00 0.00
4:53 pm 16:53 Sunny 85 29.4 61 16.1 45 45 S 10 17 29.95 1014 10 16 0.00 0.00
5:53 pm 17:53 Sunny 84 28.9 60 15.6 44 44 S 13 20 29.95 1014 10 16 0.00 0.00
6:53 pm 18:53 Sunny 82 27.8 59 15 46 46 SSE 10 17 29.93 1014 10 16 0.00 0.00
7:53 pm 19:53 Sunny 77 25 62 16.7 60 60 SE 10 17 29.93 1013 10 16 0.00 0.00
8:53 pm 20:53 Clear 74 23.3 62 16.7 67 67 SE 8 13 29.94 1014 10 16 0.00 0.00
9:53 pm 21:53 Clear 72 22.2 62 16.7 71 71 SSE 10 17 29.94 1014 10 16 0.00 0.00
10:53 pm 22:53 Clear 70 21.1 62 16.7 76 76 S 8 13 29.95 1014 10 16 0.00 0.00
11:53 pm 23:53 Clear 69 20.6 61 16.1 76 76 SSE 9 15 29.96 1014 10 16 0.00 0.00

Powered by AerisWeather